Location: �quirre
(50.4736°N, 2.2351°E)
Time: 05:20:32
(UTC+00:00)

IRS-P3 - Pass Details

Date: 07 August 2020
Orbit: 814 x 819 km, 98.9° (Epoch: 19 September)

Event Time Altitude Azimuth Distance (km) Brightness Sun altitude
Rises 03:05:26 0° 12° (NNE) 3,362 8.3 -11.5°
Reaches altitude 10° 03:07:49 10° 9° (N) 2,426 7.4 -11.2°
Maximum altitude 03:13:05 58° 291° (WNW) 951 4.3 -10.6°
Enters shadow 03:17:57 12° 215° (SW) 2,274 5.8 -10.0°
